Regional Weather Roundup
Issued by NWS Grand Forks, ND

Home | Current Version | Previous Version | Text Only | Print | Product List | Glossary Off
Versions: 1 2 3 4 5 6 7 8 9 10 11 12 13 14 15 16 17 18 19 20 21 22 23 24 25 26 27 28 29 30 31 32 33 34 35 36 37 38 39 40 41 42 43 44 45 46 47 48 49 50

000
ASUS43 KFGF 260210
RWRFGF
PRAIRIE TO PINES  WEATHER ROUNDUP
NATIONAL WEATHER SERVICE EASTERN NORTH DAKOTA/GRAND FORKS ND
900 PM CDT TUE JUL 25 2017

 **SATELLITE DATA USED TO AUGMENT SKY COVER AT AUTOMATED STATIONS**
 *****  WEATHER ACROSS EASTERN NORTH DAKOTA  *****

CITY           SKY/WX    TMP DP  RH WIND       PRES   REMARKS
GRAND FORKS    FAIR      75  61  61 NW9       29.92R
GRAND FRKS AFB FAIR      73  58  59 N10       29.94R
DEVILS LAKE    FAIR      71  60  68 N8        29.97R
FARGO          FAIR      77  70  79 SW5       29.92R
WAHPETON ARPT  FAIR      73  68  83 CALM      29.95R
$$

 ***** WEATHER ACROSS CENTRAL AND WESTERN NORTH DAKOTA  *****

CITY           SKY/WX    TMP DP  RH WIND       PRES   REMARKS
BISMARCK       FAIR      81  50  33 N6        29.98S
MINOT          FAIR      78  53  41 NW8       29.99R
JAMESTOWN      FAIR      71  58  63 N6        29.96R
MINOT AFB      FAIR      77  55  45 NW8       29.98R
GARRISON         N/A     78  50  37 N8        29.99S
WILLISTON      FAIR      82  43  25 N10       30.03R
DICKINSON      FAIR      79  47  32 N5        30.03S
HETTINGER      FAIR      76  52  43 CALM      30.05S
$$

 *****  OTHER AIRPORT OBSERVATIONS IN OUR AREA  *****

CITY           SKY/WX    TMP DP  RH WIND       PRES   REMARKS
WALHALLA       NOT AVBL
GRAFTON AIRPOR FAIR      72  57  60 NW10      29.93R
VALLEY CITY AR FAIR      72  61  68 NW5       29.97S
CANDO          NOT AVBL
CAVALIER APRT  FAIR      70  57  64 W7        29.90F
GWINNER        CLEAR     73  68  83 CALM      29.95S
SHEYENNE NWR     N/A     76  71  83 CALM      29.95S
ROLLA            N/A     66  59  77 W8        29.98S
 ***** THE ABOVE OBSERVATIONS ARE NON NWS ARE NOT QUALITY
       CONTROLLED AND MAY MIS-REPORT RAIN FOR SNOW...
$$

  *****  WEATHER ACROSS NORTHERN MINNESOTA  *****

CITY           SKY/WX    TMP DP  RH WIND       PRES   REMARKS
FLAG ISLAND    FAIR      72  57  60 W9        29.84S
WARROAD        FAIR      70  61  73 W8        29.88R
ROSEAU         FAIR      72  63  73 W3        29.88S
HALLOCK        FAIR      70  61  73 NW7       29.89S
THF RVR FALLS  FAIR      71  61  70 NW6       29.93R
BAUDETTE       FAIR      72  58  61 W9        29.87R
WASKISH        MOCLDY    75  70  83 SW10      29.88R
CROOKSTON      FAIR      72  63  73 NW6       29.92R
STEPHEN NDAWN    N/A     72  57  60 NW8         N/A
GREENBUSH NDAW   N/A     72  59  64 W8          N/A
$$
  *****  WEATHER ACROSS CENTRAL AND WEST MINNESOTA  *****

CITY           SKY/WX    TMP DP  RH WIND       PRES   REMARKS
FOSSTON        FAIR      72  66  83 W6        29.94R
BEMIDJI        FAIR      72  68  86 SW7       29.93R
PARK RAPIDS    FAIR      73  68  84 W5        29.94F
ELBOW LAKE     FAIR      74  72  93 CALM      29.96S
WADENA         FAIR      73  70  88 CALM      29.96R
DETROIT LAKES  FAIR      72  68  88 CALM      29.96S
MOORHEAD       FAIR      75  70  83 CALM      29.94R
FERGUS FALLS   FAIR      75  72  88 CALM      29.94R
MORRIS MN      FAIR      79  68  69 SW6       29.98R THUNDER
STAPLES        FAIR      73  68  83 CALM      29.95R
$$
  *****  WEATHER ELSEWHERE ACROSS MINNESOTA  *****

CITY           SKY/WX    TMP DP  RH WIND       PRES   REMARKS
DULUTH         CLOUDY    69  66  90 SW7       29.95R
INTRNTL FALLS  FAIR      71  66  84 SW8       29.84R
ELY            CLOUDY    66  64  94 SW6       29.92R
CLOQUET        CLOUDY    70  64  83 CALM      29.95S
WHEATON        FAIR      75  70  83 CALM      29.96F
BRAINERD       MOCLDY    75  71  87 CALM      29.94S
HIBBING        CLOUDY    68  68 100 CALM      29.94R
ALEXANDRIA     LGT RAIN  76  72  87 N3        29.96F
SAINT CLOUD    FAIR      76  69  79 SW5       29.95R THUNDER
MINNEAPOLIS    LGT RAIN  79  71  76 S24G33    29.90F
$$

  *****  WEATHER ACROSS SOUTH DAKOTA  *****

CITY           SKY/WX    TMP DP  RH WIND       PRES   REMARKS
SIOUX FALLS    CLOUDY    80  70  71 N9G26     29.94R
BROOKINGS      LGT RAIN  72  69  90 E16       29.96F
WATERTOWN      LGT RAIN  72  67  84 E5        29.95F
HURON          FAIR      74  69  85 E15       29.89R
SISSETON         N/A     77  72  84 CALM      29.94R
ABERDEEN       FAIR      76  72  87 NE8       29.95R
MITCHELL       TSTM      70  68  93 N30G45    29.93R FOG
PIERRE         FAIR      82  69  64 NE12      29.94R
MOBRIDGE       FAIR      76  62  62 NE6       29.93R
RAPID CITY     FAIR      78  59  51 N15       30.06R
$$

  *****  SOME WEATHER IN NEARBY STATES *****

CITY           SKY/WX    TMP DP  RH WIND       PRES   REMARKS
GLASGOW MT     FAIR      81  43  26 W6        30.05R
GREAT FALLS MT FAIR      80  37  21 NE15      30.03S
CHEYENNE WY    CLOUDY    69  55  60 NW13      30.22F
SCOTTSBLUFF NE MOCLDY    84  59  42 N16       30.01R
OMAHA NE       MOCLDY    88  71  57 SE15      29.93F HX  94
DES MOINES IA  MOCLDY    86  71  60 S13       29.98F HX  91
DAVENPORT IA   FAIR      74  67  78 SE7       30.11R
CHICAGO IL     FAIR      74  56  53 S10       30.14R
EAU CLAIRE WI  MOCLDY    73  67  81 S9        29.98F
LA CROSSE WI   FAIR      79  69  71 S8        30.02S
$$

  *****  SOME NATIONAL WEATHER *****

CITY           SKY/WX    TMP DP  RH WIND       PRES   REMARKS
LA GUARDIA NY  CLOUDY    69  61  75 NE9       30.20R
RALEIGH NC     MOCLDY    77  68  73 CALM      30.11R
ATLANTA GA     MOCLDY    78  71  79 CALM      30.11R
NEW ORLEANS LA MOCLDY    85  73  67 N3        30.10S HX  91
OKLAHOMA CITY  FAIR      87  70  56 S10       30.00R HX  92
ALBUQUERQUE NM MOCLDY    84  54  35 W5        30.18R
SALT LAKE CITY MOCLDY    83  57  41 S8        30.05S
LOS ANGELES CA FAIR      70  64  81 W12       29.96S
BOISE ID       FAIR      92  47  21 NW12      29.92S
SEATTLE WA     FAIR      83  48  29 N12       29.99F
$$

*** WEATHER ACROSS MANITOBA...SASKATCHEWAN AND ONTARIO ***
                ***ONTARIO***

CITY           SKY/WX    TMP DP  RH WIND       PRES   REMARKS
GERALDTON      MOCLDY    64  50  59 S16G28    29.86F
THUNDER BAY    MOCLDY    70  57  64 SW5       29.89R
SIOUX LOOKOUT  MOCLDY    72  59  64 NW12G29   29.78R
TORONTO        CLEAR     66  55  68 S3        30.22S
BIG TROUT LK   CLEAR     61  61 100 S6        29.58S
PICKLE LAKE    PTCLDY    66  66 100 SW8       29.68S
DRYDEN         CLEAR     70  57  64 W13G18    29.80R
KENORA         PTCLDY    68  57  68 W6        29.84R
$$
                *** MANITOBA***

CITY           SKY/WX    TMP DP  RH WIND       PRES   REMARKS
BRANDON        PTCLDY    66  59  77 W7        29.94R
DAUPHIN        CLEAR     66  63  88 W2        29.89R
ISLAND LAKE    NOT AVBL
PILOT MOUND      N/A     66  57  72 W6          N/A
THE PAS        PTCLDY    68  61  77 NW8       29.85R
THOMPSON       MOCLDY    68  59  73 NW9       29.71R
WINNIPEG       PTCLDY    68  61  77 W9        29.86S
LYNN LAKE      PTCLDY    70  54  56 NW9       29.79R
CHURCHILL      FOG       50  48  93 NE5       29.63S VSB 1/4
GILLAM         DRIZZLE   63  59  88 N14       29.62R
$$
                ***SASKATCHEWAN***

CITY           SKY/WX    TMP DP  RH WIND       PRES   REMARKS
ESTEVAN        PTCLDY    72  55  56 NW6       30.02R
KINDERSLEY     PTCLDY    72  48  43 NE8       30.05S
LLOYDMINSTER   MOSUNNY   70  55  60 NW3       30.05S
PRINCE ALBERT  PTCLDY    70  55  60 NW6       30.00R
REGINA         PTCLDY    73  54  49 NW7       30.02R
YORKTON        CLEAR     68  61  77 W10       29.97R
N. BATTLEFORD  CLEAR     70  54  56 NW6       30.06R
LA RONGE       MOCLDY    70  54  56 W6        29.95R
SASKATOON      PTCLDY    72  55  56 NW8       30.03S
SWIFT CURRENT  CLEAR     72  46  40 N6        30.08R
$$
NOTE: THESE ARE AUTOMATED STATIONS WITH LIMITED QUALITY CONTROL
      "FAIR" INDICATES FEW OR NO CLOUDS BELOW 12,000 FEET WITH NO
      SIGNIFICANT WEATHER AND/OR OBSTRUCTIONS TO VISIBILITY.
      SKY/WX - SKY CONDITION AND SIGNIFICANT WEATHER.
      TMP - AIR TEMPERATURE.    DP   - DEWPOINT TEMPERATURE.
      RH  - RELATIVE HUMIDITY.  PRES - PRESSURE.
      HX  - HEAT INDEX.         WCI  - WIND CHILL INDEX.
$



USA.gov is the U.S. government's official web portal to all federal, state and local government web resources and services.